Regional Weather Roundup
Issued by NWS Spokane, WA

Home | Current Version | Previous Version | Text Only | Print | Product List | Glossary On
Versions: 1 2 3 4 5 6 7 8 9 10 11 12 13 14 15 16 17 18 19 20 21 22 23 24 25 26 27 28 29 30 31 32 33 34 35 36 37 38 39 40 41 42 43 44 45 46 47 48 49 50
000
NZUS01 KOTX 231310
RWROTX
EASTERN WASHINGTON/NORTHERN IDAHO ROUNDUP
NATIONAL WEATHER SERVICE, SPOKANE WA
500 AM PST SUN NOV 23 2014

Note: "fair" indicated few or no clouds below 12,000 feet with no
significant weather and/or obstructions to visibility.

...NORTHEAST WASHINGTON AND NORTHERN IDAHO PANHANDLE...

CITY           SKY/WX    TMP DP  RH WIND       PRES   REMARKS
SPOKANE INTL   MOCLDY    31  29  92 S10       30.09S WCI  22
SPOKANE DOWNTO PTCLDY    31  28  89 CALM      30.14R
COEUR D ALENE  CLOUDY    30  28  93 S6        30.12R WCI  24
DEER PARK      MOCLDY    23  22  96 CALM      30.12R
SANDPOINT      PTCLDY    32  32 100 SW6       30.10R WCI  26

...SOUTHEAST WASHINGTON AND SOUTHERN IDAHO PANHANDLE...

CITY           SKY/WX    TMP DP  RH WIND       PRES   REMARKS
WALLA WALLA    CLOUDY    43  33  68 S14       30.21R
PULLMAN/MOSCOW CLEAR     36  31  82 SW12      30.15R
LEWISTON       CLEAR     41  30  65 S5        30.17R
LOWELL           N/A     34  33  96 CALM      30.22R

...COLUMBIA BASIN...

CITY           SKY/WX    TMP DP  RH WIND       PRES   REMARKS
EPHRATA        PTCLDY    32  28  85 SE5       30.09R WCI  27
MOSES LAKE     PTCLDY    33  30  88 S8        30.11R WCI  26
TRI CITIES     PTCLDY    45  36  70 SW13      30.19R
HERMISTON      PTCLDY    46  33  60 SW14      30.21R
PENDLETON      MOCLDY    42  31  64 S10       30.21R

...EAST SLOPES CASCADES...

CITY           SKY/WX    TMP DP  RH WIND       PRES   REMARKS
THE DALLES     PTCLDY    47  39  74 N5        30.22S
YAKIMA         CLEAR     33  26  75 SE3       30.15R
ELLENSBURG     PTCLDY    40  33  76 NW12      30.11R
WENATCHEE      MOCLDY    36  28  73 NE5       30.09R
OMAK           FOG       28  24  85 CALM      30.08R VSB 1/4

...SOUTHERN BRITISH COLUMBIA...

CITY           SKY/WX    TMP DP  RH WIND       PRES   REMARKS
PENTICTON      MOCLDY    36  30  80 S16G28    30.01
CRANBROOK      PTCLDY    21  18  86 CALM      29.97R

...WESTERN MONTANA...

CITY           SKY/WX    TMP DP  RH WIND       PRES   REMARKS
MISSOULA       CLOUDY    36  24  62 N8        30.04R

...NEIGHBORING CITIES...

CITY           SKY/WX    TMP DP  RH WIND       PRES   REMARKS
SEATTLE        CLOUDY    48  42  80 S16G25    30.11F
CALGARY        MOCLDY    23  19  86 S8        29.78R WCI  14



USA.gov is the U.S. government's official web portal to all federal, state and local government web resources and services.